#timestamp,LO_Frequency,Hit,StdDev 
1586311215.8,286046992.4,N
1586311235.7,286046990.4,Y
1586311255.5,286046994.4,P
1586311275.3,286046994.6,P
1586311295.2,286046994.2,P
1586311315.0,286046996.4,N
1586311315.9,286046996.4,N
1586311335.8,286046994.5,Y
1586311355.6,286046999.0,P
1586311375.4,286046996.5,N
1586311395.3,286046997.0,N
1586311415.1,286046997.7,N
1586311435.9,286046996.1,Y
1586311455.7,286046999.0,P
1586311475.5,286046998.9,N
1586311495.4,286046996.5,P
1586311515.2,286046998.7,N
1586311535.0,286046999.1,N
1586311536.0,286046999.1,N
1586311555.8,286046996.5,Y
1586311575.6,286046998.4,P
1586311595.5,286046998.5,P
1586311615.3,286047001.0,P
1586311635.1,286046998.9,N
1586311655.9,286046996.7,Y
1586311675.7,286046997.0,P
1586311695.6,286046998.4,N
1586311715.4,286047000.8,N
1586311735.2,286046999.9,N
1586311755.1,286046998.6,N
1586311756.0,286046998.6,N
1586311775.8,286047001.2,N
1586311795.7,286047001.1,N
1586311815.5,286047000.7,N
1586311835.3,286047000.4,N
1586311855.2,286047000.1,N
1586311875.0,286046999.7,N
1586311875.9,286046999.7,N
1586311895.8,286047000.9,N
1586311915.6,286046999.8,N
1586311935.4,286047000.4,N
1586311955.3,286047002.2,N
1586311975.1,286047003.4,N
1586311995.8,286047003.4,N
1586312015.7,286047004.2,N
1586312035.5,286046999.7,N
1586312055.4,286047002.2,N
1586312075.2,286047005.4,Y
1586312095.0,286047007.3,P
1586312096.0,286047007.3,N
1586312115.8,286047004.9,N
1586312135.6,286047003.6,N
1586312155.8,286047002.9,N
1586312175.6,286047005.9,N
1586312195.4,286047001.3,N
1586312215.3,286047004.3,N
1586312235.1,286047000.3,N
1586312255.9,286047000.6,N
1586312275.7,286047002.5,N
1586312295.5,286047004.1,N
1586312315.4,286047005.6,N
1586312335.2,286047003.8,N
1586312355.0,286047001.7,N
1586312355.9,286047001.7,N
1586312375.8,286047003.6,N
1586312395.6,286047003.0,N
1586312415.5,286047003.2,N
1586312435.3,286047005.0,N
1586312455.1,286047004.7,N
1586312475.9,286047007.0,Y
1586312495.7,286047001.4,P
1586312515.6,286047001.5,N
1586312535.4,286047001.6,N
1586312555.2,286047004.0,Y
1586312575.1,286047000.3,P
1586312576.0,286047000.3,N
1586312595.8,286047002.8,P
1586312615.6,286047001.1,N
1586312635.5,286047002.7,N
1586312655.3,286046996.5,Y
1586312675.2,286046998.2,P
1586312695.0,286046999.3,N
1586312695.9,286046999.3,N
1586312715.7,286046998.7,N
1586312735.6,286047001.1,N
1586312755.4,286047000.9,N
1586312775.3,286047000.2,N
1586312795.1,286046999.9,N
1586312796.0,286046999.9,N
1586312815.8,286047000.7,N
1586312835.7,286046999.9,N
1586312855.5,286047000.8,N
1586312875.4,286047002.6,N
1586312895.2,286047002.1,N
1586312915.0,286047001.3,N
1586312915.9,286047001.3,N
1586312935.8,286047003.7,Y
1586312955.6,286047003.0,P
1586312975.5,286047004.7,P
1586312995.3,286047005.6,P
1586313015.1,286047003.5,N
1586313035.9,286047004.4,N
1586313055.7,286047004.4,N
1586313075.5,286047001.0,N
1586313095.4,286047000.0,N
1586313115.2,286047000.2,N
1586313135.1,286047002.3,N
1586313136.0,286047002.3,N
1586313155.8,286047001.6,N
1586313175.6,286047002.1,N
1586313195.5,286046999.8,N
1586313215.3,286047001.6,N
1586313235.1,286047003.2,N
1586313255.9,286047003.8,N
1586313275.7,286047002.4,N
1586313295.6,286047002.7,N
1586313315.4,286047000.2,N
1586313335.2,286047002.6,N
1586313355.1,286047004.4,N
1586313356.0,286047004.4,N
1586313375.8,286047000.3,N
1586313395.7,286047001.4,N
1586313415.5,286047001.4,N
1586313435.3,286047001.0,N
1586313455.2,286046998.2,N
1586313475.0,286047000.3,N
1586313475.9,286047000.3,N
1586313495.8,286047000.6,N
1586313515.6,286047002.8,N
1586313535.4,286047001.5,N
1586313555.3,286047002.0,N
1586313575.1,286047002.4,N
1586313595.8,286047004.3,N
1586313615.7,286047004.4,N
1586313635.5,286047003.0,N
1586313655.4,286047001.4,N
1586313675.2,286047004.1,N
1586313695.0,286047000.0,N
1586313695.9,286047000.0,N
1586313715.8,286047000.3,N
1586313735.6,286047001.2,N
1586313755.5,286047002.7,N
1586313775.3,286047003.3,N
1586313795.1,286047005.3,Y
1586313815.9,286047002.8,P
1586313835.7,286046998.5,P
1586313855.6,286046999.8,N
1586313875.4,286047000.0,N
1586313895.2,286046996.9,N
1586313915.1,286046998.0,N
1586313916.0,286046998.0,N
1586313935.8,286046999.5,N
1586313955.6,286046999.8,N
1586313975.5,286047000.0,N
1586313995.3,286047000.9,N
1586314015.2,286046999.0,N
1586314035.9,286046999.7,N
1586314055.7,286047002.8,N
1586314075.6,286046999.9,N
1586314095.4,286047002.2,N
1586314115.3,286047002.8,N
1586314135.1,286046998.7,N
1586314136.0,286046998.7,N
1586314155.8,286047000.7,N
1586314175.7,286047000.6,N
1586314195.5,286046999.0,N
1586314215.4,286047000.8,N
1586314235.2,286047000.5,N
1586314255.0,286046999.9,N
1586314255.9,286046999.9,N
1586314275.8,286047011.9,Y
1586314295.6,286047000.3,P
1586314315.4,286047001.9,P
1586314335.3,286046998.8,N
1586314355.1,286046999.5,N
1586314375.9,286046999.0,N
1586314395.7,286047000.9,N
1586314415.6,286046999.7,N
1586314435.4,286047001.3,N
1586314455.2,286047002.4,N
1586314475.1,286047011.9,Y
1586314476.0,286047000.2,P
1586314495.8,286046996.6,P
1586314515.7,286046999.4,N
1586314535.5,286046998.2,N
1586314555.3,286047001.0,N
1586314575.2,286047000.3,N
1586314595.9,286046996.5,N
1586314615.7,286046998.5,N
1586314635.6,286047000.5,N
1586314655.4,286047001.9,N
1586314675.3,286047002.3,N
1586314695.1,286047002.7,N
1586314696.0,286047002.7,N
1586314715.8,286047000.4,N
1586314735.7,286046998.1,N
1586314755.5,286046999.7,N
1586314775.3,286047000.3,N
1586314795.2,286046999.4,N
